Flag for Argentina Weather past 2 weeks in Zárate, Buenos Aires, Argentina

Now
66 °F

Passing clouds.


Feels Like: 66 °F
Forecast: 58 / 82 °F
Wind: 9 mph from North

Location: Buenos Aires Airport

Current Time: Apr 26, 2015 at 10:21:27 AM

Latest Report: Apr 26, 2015 at 9:00 AM


Visibility: N/A

Pressure: 30.09 "Hg

Humidity: 64%

Dew point: 54 °F

Location of ZárateLocation

Historic Weather in Zárate — Graph

°F

Zárate temperature yesterday

Maximum temperature yesterday: 77 °F (at 3:00 PM)
Minimum temperature yesterday: 64 °F (at 1:00 AM)
Average temperature yesterday: 70 °F

Past Weeks' High & Low Weather Summary

 TemperatureHumidityPressure
High82 °F (Apr 13, 5:00 PM)100% (Apr 17, 2:00 AM)30.21 "Hg (Apr 17, 2:00 AM)
Low55 °F (Apr 18, 7:00 AM)27% (Apr 18, 2:00 PM)29.74 "Hg (Apr 19, 4:00 AM)
Average68 °F68%30.01 "Hg
* Reported Apr 11 10:00 AM — Apr 26 9:00 AM, Zárate, Weather by CustomWeather, © 2015

Note: Actual official high and low records may vary slightly from our data, if they occured in-between our weather recording intervals... More about our weather records

Advertising

Zárate weather history for previous 24 hours

 ConditionsComfort  
Time TempWeatherWind HumidityBarometerVisibility
9:00 AM
Sun, Apr 26
66 °FPassing clouds.9 mph64%30.09 "HgN/A
8:00 AM64 °FPassing clouds.7 mph73%30.07 "HgN/A
7:00 AM64 °FSunny.8 mph68%30.07 "Hg10 mi
6:00 AM63 °FClear.5 mph77%30.04 "Hg10 mi
5:00 AM64 °FClear.9 mph73%30.04 "Hg10 mi
4:00 AM64 °FClear.9 mph73%30.04 "Hg10 mi
3:00 AM66 °FPassing clouds.8 mph64%30.04 "HgN/A
2:00 AM68 °FClear.8 mph73%30.04 "Hg10 mi
1:00 AM68 °FClear.7 mph78%30.04 "Hg10 mi
12:00 AM70 °FClear.7 mph78%30.04 "Hg10 mi
11:00 PM
Sat, Apr 25
70 °FClear.3 mph78%30.04 "Hg10 mi
10:00 PM70 °FClear.3 mph78%30.04 "Hg10 mi
9:00 PM70 °FClear.2 mph83%30.04 "Hg10 mi
8:00 PM72 °FClear.7 mph73%30.04 "Hg10 mi
7:00 PM72 °FClear.6 mph78%30.04 "Hg10 mi
6:00 PM75 °FClear.7 mph61%30.04 "Hg10 mi
5:00 PM75 °FSunny.9 mph65%30.04 "Hg10 mi
4:00 PM75 °FSunny.7 mph69%30.04 "Hg10 mi
3:00 PM77 °FSunny.8 mph57%30.07 "Hg10 mi
2:00 PM75 °FSunny.7 mph61%30.09 "Hg10 mi
12:00 PM72 °FSunny.8 mph57%30.12 "Hg10 mi
11:00 AM72 °FSunny.8 mph50%30.15 "Hg10 mi
10:00 AM72 °FSunny.8 mph47%30.15 "Hg10 mi
Weather by CustomWeather, © 2015

See weather overviewHow to use our weather pages